Time,TemperatureF,DewpointF,PressureIn,WindDirection,WindDirectionDegrees,WindSpeedMPH,WindSpeedGustMPH,Humidity,HourlyPrecipIn,Conditions,Clouds,dailyrainin,SoftwareType,DateUTC
2013-04-30 00:01:00,50.0,35.0,-100.00,South,172,1.0,2.0,56,-99.99,,,-99.99,,2013-04-30 07:01:00,
2013-04-30 00:11:00,50.0,35.0,-100.00,South,172,1.0,2.0,56,-99.99,,,-99.99,,2013-04-30 07:11:00,
2013-04-30 00:21:00,50.0,35.0,-100.00,SSE,161,0.0,1.0,56,-99.99,,,-99.99,,2013-04-30 07:21:00,
2013-04-30 00:31:00,50.0,35.0,-100.00,SSE,161,0.0,1.0,56,-99.99,,,-99.99,,2013-04-30 07:31:00,
2013-04-30 00:41:00,50.0,35.0,-100.00,South,169,0.0,1.0,56,-99.99,,,-99.99,,2013-04-30 07:41:00,
2013-04-30 00:52:00,50.0,34.0,-100.00,SSE,154,0.0,1.0,56,-99.99,,,-99.99,,2013-04-30 07:52:00,
2013-04-30 01:02:00,50.0,34.0,-100.00,SSE,154,0.0,1.0,56,-99.99,,,-99.99,,2013-04-30 08:02:00,
2013-04-30 01:11:00,50.0,34.0,-100.00,SSE,154,0.0,1.0,56,-99.99,,,-99.99,,2013-04-30 08:11:00,
2013-04-30 01:21:00,50.0,34.0,-100.00,SSE,154,0.0,1.0,56,-99.99,,,-99.99,,2013-04-30 08:21:00,
2013-04-30 04:01:00,46.0,36.0,-100.00,SSE,162,1.0,2.0,67,-99.99,,,-99.99,,2013-04-30 11:01:00,
2013-04-30 04:11:00,46.0,36.0,-100.00,SSE,162,1.0,2.0,67,-99.99,,,-99.99,,2013-04-30 11:11:00,
2013-04-30 04:21:00,46.0,36.0,-100.00,SSE,161,1.0,2.0,68,-99.99,,,-99.99,,2013-04-30 11:21:00,
2013-04-30 04:31:00,46.0,36.0,-100.00,SSE,161,1.0,2.0,68,-99.99,,,-99.99,,2013-04-30 11:31:00,
2013-04-30 04:42:00,46.0,36.0,-100.00,SSE,161,1.0,2.0,68,-99.99,,,-99.99,,2013-04-30 11:42:00,
2013-04-30 04:51:00,46.0,36.0,-100.00,SSE,161,1.0,2.0,68,-99.99,,,-99.99,,2013-04-30 11:51:00,
2013-04-30 07:52:00,46.0,39.0,-100.00,SSE,154,1.0,2.0,76,-99.99,,,-99.99,,2013-04-30 14:52:00,
2013-04-30 08:01:00,46.0,39.0,-100.00,NE,52,1.0,7.0,76,-99.99,,,-99.99,,2013-04-30 15:01:00,
2013-04-30 08:11:00,46.0,39.0,-100.00,NE,52,1.0,7.0,76,-99.99,,,-99.99,,2013-04-30 15:11:00,
2013-04-30 08:21:00,47.0,38.0,-100.00,North,7,1.0,4.0,71,-99.99,,,-99.99,,2013-04-30 15:21:00,
2013-04-30 08:32:00,47.0,38.0,-100.00,North,7,1.0,4.0,71,-99.99,,,-99.99,,2013-04-30 15:32:00,
2013-04-30 08:42:00,47.0,38.0,-100.00,North,7,1.0,4.0,71,-99.99,,,-99.99,,2013-04-30 15:42:00,
2013-04-30 08:52:00,48.0,36.0,-100.00,WSW,254,1.0,4.0,64,-99.99,,,-99.99,,2013-04-30 15:52:00,
2013-04-30 09:02:00,49.0,37.0,-100.00,West,264,1.0,5.0,62,-99.99,,,-99.99,,2013-04-30 16:02:00,
2013-04-30 09:12:00,49.0,37.0,-100.00,West,264,1.0,5.0,62,-99.99,,,-99.99,,2013-04-30 16:12:00,
2013-04-30 09:22:00,50.0,37.0,-100.00,NNW,333,1.0,4.0,60,-99.99,,,-99.99,,2013-04-30 16:22:00,
2013-04-30 09:33:00,49.0,35.0,-100.00,West,274,1.0,3.0,59,-99.99,,,-99.99,,2013-04-30 16:33:00,
2013-04-30 09:42:00,49.0,35.0,-100.00,West,274,1.0,3.0,59,-99.99,,,-99.99,,2013-04-30 16:42:00,
2013-04-30 09:52:00,50.0,33.0,-100.00,NW,322,1.0,5.0,51,-99.99,,,-99.99,,2013-04-30 16:52:00,
2013-04-30 10:02:00,51.0,37.0,-100.00,ENE,62,1.0,5.0,59,-99.99,,,-99.99,,2013-04-30 17:02:00,
2013-04-30 10:12:00,51.0,39.0,-100.00,North,11,2.0,5.0,63,-99.99,,,-99.99,,2013-04-30 17:12:00,
2013-04-30 10:22:00,51.0,38.0,-100.00,NNW,343,1.0,6.0,62,-99.99,,,-99.99,,2013-04-30 17:22:00,
2013-04-30 10:32:00,51.0,38.0,-100.00,NNW,343,1.0,6.0,62,-99.99,,,-99.99,,2013-04-30 17:32:00,
2013-04-30 10:42:00,50.0,37.0,-100.00,West,268,1.0,4.0,60,-99.99,,,-99.99,,2013-04-30 17:42:00,
2013-04-30 10:52:00,51.0,36.0,-100.00,WNW,302,1.0,3.0,56,-99.99,,,-99.99,,2013-04-30 17:52:00,
2013-04-30 11:01:00,52.0,37.0,-100.00,NNW,328,1.0,4.0,57,-99.99,,,-99.99,,2013-04-30 18:01:00,
2013-04-30 11:11:00,53.0,38.0,-100.00,NW,320,1.0,5.0,56,-99.99,,,-99.99,,2013-04-30 18:11:00,
2013-04-30 11:22:00,53.0,36.0,-100.00,NNW,344,1.0,4.0,53,-99.99,,,-99.99,,2013-04-30 18:22:00,
2013-04-30 11:32:00,54.0,35.0,-100.00,SW,230,1.0,6.0,49,-99.99,,,-99.99,,2013-04-30 18:32:00,
2013-04-30 11:41:00,54.0,36.0,-100.00,NW,311,2.0,6.0,51,-99.99,,,-99.99,,2013-04-30 18:41:00,
2013-04-30 11:51:00,55.0,36.0,-100.00,NW,315,1.0,8.0,49,-99.99,,,-99.99,,2013-04-30 18:51:00,
2013-04-30 12:01:00,56.0,36.0,-100.00,NW,312,1.0,8.0,47,-99.99,,,-99.99,,2013-04-30 19:01:00,
2013-04-30 12:11:00,56.0,37.0,-100.00,WNW,285,1.0,8.0,48,-99.99,,,-99.99,,2013-04-30 19:11:00,
2013-04-30 12:21:00,56.0,37.0,-100.00,NW,325,1.0,5.0,48,-99.99,,,-99.99,,2013-04-30 19:21:00,
2013-04-30 12:32:00,56.0,37.0,-100.00,WSW,253,1.0,5.0,49,-99.99,,,-99.99,,2013-04-30 19:32:00,
2013-04-30 12:42:00,57.0,37.0,-100.00,West,281,1.0,5.0,47,-99.99,,,-99.99,,2013-04-30 19:42:00,
2013-04-30 12:52:00,58.0,37.0,-100.00,NW,306,1.0,4.0,45,-99.99,,,-99.99,,2013-04-30 19:52:00,
2013-04-30 13:02:00,57.0,35.0,-100.00,WNW,284,2.0,5.0,44,-99.99,,,-99.99,,2013-04-30 20:02:00,
2013-04-30 13:11:00,57.0,36.0,-100.00,West,274,1.0,5.0,45,-99.99,,,-99.99,,2013-04-30 20:11:00,
2013-04-30 13:21:00,58.0,35.0,-100.00,West,281,2.0,5.0,42,-99.99,,,-99.99,,2013-04-30 20:21:00,
2013-04-30 13:32:00,59.0,36.0,-100.00,WNW,296,2.0,5.0,42,-99.99,,,-99.99,,2013-04-30 20:32:00,
2013-04-30 13:42:00,59.0,38.0,-100.00,NW,312,2.0,5.0,46,-99.99,,,-99.99,,2013-04-30 20:42:00,
2013-04-30 13:52:00,59.0,38.0,-100.00,NW,313,2.0,5.0,45,-99.99,,,-99.99,,2013-04-30 20:52:00,
2013-04-30 14:01:00,59.0,37.0,-100.00,NW,304,2.0,6.0,43,-99.99,,,-99.99,,2013-04-30 21:01:00,
2013-04-30 14:11:00,58.0,37.0,-100.00,West,268,3.0,8.0,46,-99.99,,,-99.99,,2013-04-30 21:11:00,
2013-04-30 14:22:00,60.0,37.0,-100.00,West,281,2.0,5.0,43,-99.99,,,-99.99,,2013-04-30 21:22:00,
2013-04-30 14:32:00,60.0,37.0,-100.00,West,281,2.0,5.0,43,-99.99,,,-99.99,,2013-04-30 21:32:00,
2013-04-30 14:42:00,60.0,37.0,-100.00,West,281,2.0,5.0,43,-99.99,,,-99.99,,2013-04-30 21:42:00,
2013-04-30 14:52:00,61.0,35.0,-100.00,WNW,285,2.0,5.0,38,-99.99,,,-99.99,,2013-04-30 21:52:00,
2013-04-30 15:02:00,62.0,30.0,-100.00,NW,311,1.0,5.0,30,-99.99,,,-99.99,,2013-04-30 22:02:00,
2013-04-30 15:12:00,62.0,30.0,-100.00,NW,311,1.0,5.0,30,-99.99,,,-99.99,,2013-04-30 22:12:00,
2013-04-30 15:22:00,64.0,33.0,-100.00,NNW,332,1.0,5.0,31,-99.99,,,-99.99,,2013-04-30 22:22:00,
2013-04-30 15:32:00,61.0,31.0,-100.00,NNW,347,2.0,6.0,32,-99.99,,,-99.99,,2013-04-30 22:32:00,
2013-04-30 15:41:00,61.0,31.0,-100.00,NNW,347,2.0,6.0,32,-99.99,,,-99.99,,2013-04-30 22:41:00,
2013-04-30 15:52:00,59.0,36.0,-100.00,NNE,14,1.0,5.0,41,-99.99,,,-99.99,,2013-04-30 22:52:00,
2013-04-30 16:02:00,59.0,36.0,-100.00,NNE,14,1.0,5.0,41,-99.99,,,-99.99,,2013-04-30 23:02:00,
2013-04-30 16:11:00,59.0,36.0,-100.00,NNE,14,1.0,5.0,41,-99.99,,,-99.99,,2013-04-30 23:11:00,
2013-04-30 16:21:00,59.0,36.0,-100.00,NNE,14,1.0,5.0,41,-99.99,,,-99.99,,2013-04-30 23:21:00,
2013-04-30 16:32:00,64.0,39.0,-100.00,NW,319,1.0,4.0,39,-99.99,,,-99.99,,2013-04-30 23:32:00,
2013-04-30 16:42:00,64.0,39.0,-100.00,NW,319,1.0,4.0,39,-99.99,,,-99.99,,2013-04-30 23:42:00,
2013-04-30 16:52:00,63.0,28.0,-100.00,WSW,241,1.0,4.0,27,-99.99,,,-99.99,,2013-04-30 23:52:00,
2013-04-30 17:01:00,63.0,28.0,-100.00,WSW,241,1.0,4.0,27,-99.99,,,-99.99,,2013-05-01 00:01:00,
2013-04-30 17:11:00,63.0,28.0,-100.00,WSW,241,1.0,4.0,27,-99.99,,,-99.99,,2013-05-01 00:11:00,
2013-04-30 17:21:00,63.0,28.0,-100.00,WSW,241,1.0,4.0,27,-99.99,,,-99.99,,2013-05-01 00:21:00,
2013-04-30 17:32:00,64.0,24.0,-100.00,NNW,329,1.0,5.0,21,-99.99,,,-99.99,,2013-05-01 00:32:00,
2013-04-30 17:42:00,64.0,24.0,-100.00,NNW,329,1.0,5.0,21,-99.99,,,-99.99,,2013-05-01 00:42:00,
2013-04-30 17:52:00,64.0,24.0,-100.00,NNW,329,1.0,5.0,21,-99.99,,,-99.99,,2013-05-01 00:52:00,
2013-04-30 18:01:00,64.0,24.0,-100.00,NNW,329,1.0,5.0,21,-99.99,,,-99.99,,2013-05-01 01:01:00,
2013-04-30 18:32:00,61.0,24.0,-100.00,WSW,257,1.0,3.0,24,-99.99,,,-99.99,,2013-05-01 01:32:00,
2013-04-30 18:42:00,61.0,24.0,-100.00,WSW,257,1.0,3.0,24,-99.99,,,-99.99,,2013-05-01 01:42:00,
2013-04-30 18:52:00,62.0,33.0,-100.00,WNW,296,1.0,3.0,33,-99.99,,,-99.99,,2013-05-01 01:52:00,
2013-04-30 19:02:00,62.0,33.0,-100.00,WNW,296,1.0,3.0,33,-99.99,,,-99.99,,2013-05-01 02:02:00,
2013-04-30 19:32:00,56.0,20.0,-100.00,SE,134,2.0,8.0,24,-99.99,,,-99.99,,2013-05-01 02:32:00,
2013-04-30 19:42:00,56.0,20.0,-100.00,SE,134,2.0,8.0,24,-99.99,,,-99.99,,2013-05-01 02:42:00,
2013-04-30 19:52:00,56.0,18.0,-100.00,ENE,75,2.0,6.0,22,-99.99,,,-99.99,,2013-05-01 02:52:00,
2013-04-30 20:01:00,56.0,18.0,-100.00,ENE,75,2.0,6.0,22,-99.99,,,-99.99,,2013-05-01 03:01:00,
2013-04-30 20:11:00,56.0,18.0,-100.00,ENE,75,2.0,6.0,22,-99.99,,,-99.99,,2013-05-01 03:11:00,
2013-04-30 20:21:00,54.0,17.0,-100.00,NE,48,1.0,5.0,23,-99.99,,,-99.99,,2013-05-01 03:21:00,
2013-04-30 20:33:00,54.0,17.0,-100.00,NE,48,1.0,5.0,23,-99.99,,,-99.99,,2013-05-01 03:33:00,
2013-04-30 20:42:00,54.0,17.0,-100.00,NE,48,1.0,5.0,23,-99.99,,,-99.99,,2013-05-01 03:42:00,
2013-04-30 20:53:00,52.0,12.0,-100.00,ENE,69,5.0,16.0,20,-99.99,,,-99.99,,2013-05-01 03:53:00,
2013-04-30 21:03:00,52.0,12.0,-100.00,ENE,69,5.0,16.0,20,-99.99,,,-99.99,,2013-05-01 04:03:00,
2013-04-30 21:12:00,52.0,12.0,-100.00,ENE,69,5.0,16.0,20,-99.99,,,-99.99,,2013-05-01 04:12:00,
2013-04-30 21:22:00,52.0,12.0,-100.00,ENE,69,5.0,16.0,20,-99.99,,,-99.99,,2013-05-01 04:22:00,
2013-04-30 21:32:00,51.0,9.0,-100.00,ENE,64,8.0,22.0,18,-99.99,,,-99.99,,2013-05-01 04:32:00,
2013-04-30 21:43:00,51.0,9.0,-100.00,ENE,64,8.0,22.0,18,-99.99,,,-99.99,,2013-05-01 04:43:00,
2013-04-30 21:52:00,50.0,9.0,-100.00,ENE,65,5.0,15.0,19,-99.99,,,-99.99,,2013-05-01 04:52:00,
2013-04-30 22:02:00,50.0,7.0,-100.00,ENE,68,6.0,23.0,17,-99.99,,,-99.99,,2013-05-01 05:02:00,
2013-04-30 22:11:00,50.0,8.0,-100.00,ENE,59,7.0,22.0,18,-99.99,,,-99.99,,2013-05-01 05:11:00,
2013-04-30 22:21:00,49.0,8.0,-100.00,ENE,68,6.0,19.0,18,-99.99,,,-99.99,,2013-05-01 05:21:00,
2013-04-30 22:32:00,48.0,5.0,-100.00,ENE,76,5.0,17.0,17,-99.99,,,-99.99,,2013-05-01 05:32:00,
2013-04-30 22:41:00,48.0,3.0,-100.00,ENE,75,6.0,19.0,15,-99.99,,,-99.99,,2013-05-01 05:41:00,
2013-04-30 22:52:00,48.0,3.0,-100.00,ENE,75,6.0,19.0,15,-99.99,,,-99.99,,2013-05-01 05:52:00,
2013-04-30 23:02:00,47.0,-3.0,-100.00,ENE,72,7.0,24.0,12,-99.99,,,-99.99,,2013-05-01 06:02:00,
2013-04-30 23:22:00,46.0,-6.0,-100.00,ENE,75,6.0,16.0,11,-99.99,,,-99.99,,2013-05-01 06:22:00,
2013-04-30 23:32:00,46.0,-6.0,-100.00,ENE,75,6.0,16.0,11,-99.99,,,-99.99,,2013-05-01 06:32:00,
2013-04-30 23:42:00,45.0,-6.0,-100.00,ENE,65,7.0,22.0,11,-99.99,,,-99.99,,2013-05-01 06:42:00,
2013-04-30 23:51:00,45.0,-8.0,-100.00,ENE,69,7.0,22.0,10,-99.99,,,-99.99,,2013-05-01 06:51:00,